Regional Weather Roundup
Issued by NWS

Home | Current Version | Previous Version | Text Only | Print | Product List | Glossary On
Versions: 1 2 3 4 5 6 7 8 9 10 11 12 13 14 15 16 17 18 19 20 21 22 23 24 25 26 27 28 29 30 31 32 33 34 35 36 37 38 39 40 41 42 43 44 45 46 47 48 49 50
000
ASUS43 KMKX 181100
RWRWI

WISCONSIN REGIONAL WEATHER ROUNDUP
NATIONAL WEATHER SERVICE MILWAUKEE/SULLIVAN WI
600 AM CDT SAT APR 18 2015

NOTE: "FAIR" INDICATES FEW OR NO CLOUDS BELOW 12,000 FEET WITH NO
SIGNIFICANT WEATHER AND/OR OBSTRUCTIONS TO VISIBILITY.

WIZ001-002-006>008-014>016-023>028-181200-
NORTHWEST WISCONSIN

CITY           SKY/WX    TMP DP  RH WIND       PRES   REMARKS
SUPERIOR ARPT  CLEAR     40  33  75 E15G21    30.19S WCI  31
ASHLAND        CLEAR     37  33  85 NE10      30.21S WCI  30
HAYWARD        CLEAR     41  32  70 NE7       30.15S
SIREN          CLEAR     47  29  50 NE8       30.13R
CUMBERLAND     CLEAR     46  30  53 NE10      30.11R
RICE LAKE      CLEAR     45  31  57 NE7       30.13R
CHETEK         CLEAR     49  31  50 NE8       30.11R
LADYSMITH      CLEAR     46  31  55 NE7       30.14R
EAU CLAIRE     NOT AVBL
MENOMONIE      CLEAR     51  28  40 NE6       30.11R
NEW RICHMOND   CLEAR     47  30  52 NE7       30.10R
OSCEOLA        CLEAR     49  30  48 E3        30.13R
$$

WIZ003>005-009-010-017-018-181200-
NORTH CENTRAL WISCONSIN

CITY           SKY/WX    TMP DP  RH WIND       PRES   REMARKS
MANITOWISH WTR CLEAR     38  32  80 NE9       30.15S WCI  31
ARBOR VITAE    CLEAR     42  33  72 NE5       30.15S
WOODRUFF       CLEAR     42  33  72 NE5       30.15S
RHINELANDER    CLEAR     42  31  64 NE8       30.15R
EAGLE RIVER    CLEAR     38  30  73 NE13      30.15R WCI  30
LAND O LAKES   CLEAR     37  32  81 NE7       30.17R WCI  32
PHILLIPS       CLEAR     41  32  69 NE6       30.13R
TOMAHAWK       CLEAR     44  32  62 NE6       30.13S
MEDFORD        CLEAR     45  31  58 NE10      30.10S
MERRILL        CLEAR     40  30  68 CALM      30.12R
$$

WIZ029-030-035-036-043>047-181200-
CENTRAL WISCONSIN

CITY           SKY/WX    TMP DP  RH WIND       PRES   REMARKS
WAUSAU         CLEAR     47  29  49 N5        30.10R
MOSINEE        PTCLDY    46  30  53 NE8       30.12R
MARSHFIELD     CLEAR     48  30  49 NE13      30.11R
STEVENS POINT  CLEAR     45  31  56 NE10      30.10R
WAUPACA        CLEAR     52  32  47 NE3       30.10R
WAUTOMA        NOT AVBL
WISC RAPIDS    CLEAR     51  28  41 NE10      30.10R
CAMP DOUGLAS   NOT AVBL
$$

WIZ011>013-019>022-031-037>040-048>050-181200-
NORTHEAST WISCONSIN

CITY           SKY/WX    TMP DP  RH WIND       PRES   REMARKS
ANTIGO         CLEAR     43  32  65 NE10      30.11R
SHAWANO        CLEAR     50  33  52 NE9       30.11R
OCONTO         CLEAR     45  34  65 NE8       30.12R
STURGEON BAY   CLEAR     43  34  70 N17       30.16R
GREEN BAY      CLEAR     48  37  65 NE16      30.12R
MANITOWOC      NOT AVBL
APPLETON       PTCLDY    48  34  57 NE13      30.10R
CLINTONVILLE   CLEAR     46  32  57 NE8       30.09S
OSHKOSH        PTCLDY    50  38  63 NE17G26   30.10R
$$

WIZ032>034-041-042-053>061-181200-
SOUTHWEST WISCONSIN

CITY           SKY/WX    TMP DP  RH WIND       PRES   REMARKS
LA CROSSE      PTCLDY    49  43  80 CALM      30.07R
SPARTA         PTCLDY    33  33  99 CALM      30.08R
VIROQUA        PTCLDY    54  32  43 NE6       30.05S
BOSCOBEL       CLEAR     45  42  89 CALM      30.05R
PRAIRIE DU CHI PTCLDY    48  43  84 CALM      30.04S
PLATTEVILLE    CLEAR     59  41  51 NE10      30.03S
$$

WIZ056-057-062-063-064-067-068-181200-
SOUTH CENTRAL WISCONSIN

CITY           SKY/WX    TMP DP  RH WIND       PRES   REMARKS
REEDSBURG      CLEAR     45  43  93 CALM      30.05S
BARABOO/DELLS  CLEAR     46  40  79 CALM      30.06R
LONE ROCK      NOT AVBL
MINERAL POINT  CLEAR     59  37  44 NE6       30.04S
MADISON        MOCLDY    45  42  89 CALM      30.04R
MIDDLETON      CLEAR     48  42  77 CALM      30.05R
WATERTOWN      CLEAR     43  42  97 CALM      30.03S
MONROE         PTCLDY    55  45  67 N7        30.03R
JANESVILLE     CLEAR     48  45  87 CALM      30.03R
$$

WIZ051-052-058>065-066-070>072-181200-
SOUTHEAST WISCONSIN

CITY           SKY/WX    TMP DP  RH WIND       PRES   REMARKS
MILWAUKEE      PTCLDY    53  42  66 N6        30.04R
WAUKESHA       CLEAR     46  41  81 CALM      30.05R
MILWAUKEE/TIMM CLEAR     46  39  76 CALM      30.04R
RACINE         CLEAR     56  43  61 N8        30.04R
BURLINGTON     CLEAR     44  43  97 CALM      30.02S
KENOSHA        CLEAR     57  45  64 N7        30.03R
FOND DU LAC    PTCLDY    46  41  82 NE8       30.08R
SHEBOYGAN      CLEAR     49  37  63 NE20G29   30.09R
WEST BEND      CLEAR     43  39  87 CALM      30.05R
JUNEAU         PTCLDY    49  43  79 CALM      30.05S
$$

LSZ147-162-181200-
LAKE SUPERIOR

STATION/POSITION TIME  TEMP    WIND        PRES    WAVE
                       AIR SEA DIR/SP/G            HT/PER
                 (UTC) (F)     (DEG/KT/KT) (MB)    (FT/S)
DEVILS ISLAND    1000   39      60/ 14/ 14 1023.8R
PORT WING        1000   42      70/  7/ 10 1022.7R
SAXON HARBOR     1040   42      70/  5/ 10 1022.4S
$$

LMZ867-665-643>646-181200-
LAKE MICHIGAN

STATION/POSITION TIME  TEMP    WIND        PRES    WAVE
                       AIR SEA DIR/SP/G            HT/PER
                 (UTC) (F)     (DEG/KT/KT) (MB)    (FT/S)
CHAMBERS ISLAND  1000   41     350/ 16/ 18 1019.6R
NORTHPORT PIER   1000   40     330/ 13/ 21 1019.6R
SISTER BAY       1017   42      10/ 22/ 31   N/A
KEWAUNEE LAKESHO 1000   47      10/ 10/ 16 1017.9R
SHEBOYGAN LAKESH 1000   56     320/  3/  4 1017.6R
PORT WASHINGTON  1000   58     320/  7/ 10 1017.3R
MILWAUKEE LAKESH 1000   59     320/  8/ 10   N/A
KENOSHA   LAKESH 1000   59     320/  5/  6 1016.3S
$$

TC  - TEMPERATURE IN CELSIUS
VSB - VISIBILITY IN STATUTE MILES
WCI - WIND CHILL INDEX
HX  - HEAT INDEX



USA.gov is the U.S. government's official web portal to all federal, state and local government web resources and services.